Flag for Romania Weather past 2 weeks in Brăila, Romania

Now
72 °F

Clear.


Feels Like: 74 °F
Forecast: 63 / 93 °F
Wind: 5 mph from South

Location: Galati

Current Time: Sep 2, 2015 at 3:50:42 AM

Latest Report: Sep 2, 2015 at 3:00 AM


Visibility: 13 mi

Pressure: 29.93 "Hg

Humidity: 74%

Dew point: 63 °F

Location of BrăilaLocation

Historic Weather in Brăila — Graph

°F

Brăila temperature yesterday

Maximum temperature yesterday: 94 °F (at 6:00 PM)
Minimum temperature yesterday: 69 °F (at 7:00 AM)
Average temperature yesterday: 81 °F

Past Weeks' High & Low Weather Summary

 TemperatureHumidityPressure
High96 °F (Aug 29, 4:00 PM)99% (Aug 18, 8:00 AM)30.26 "Hg (Aug 18, 8:00 AM)
Low59 °F (Aug 20, 3:00 AM)14% (Sep 1, 3:00 PM)29.83 "Hg (Aug 18, 6:00 AM)
Average73 °F59%30.08 "Hg
* Reported Aug 18 2:00 AM — Sep 2 2:00 AM, Brăila, Weather by CustomWeather, © 2015

Note: Actual official high and low records may vary slightly from our data, if they occured in-between our weather recording intervals... More about our weather records

Advertising

Brăila weather history for previous 24 hours

 ConditionsComfort  
Time TempWeatherWind HumidityBarometerVisibility
2:00 AM
Wed, Sep 2
73 °FClear.3 mph69%29.93 "Hg12 mi
11:00 PM
Tue, Sep 1
78 °FClear.3 mph42%29.93 "Hg12 mi
10:00 PM80 °FClear.3 mph34%29.93 "Hg12 mi
9:00 PM83 °FClear.3 mph31%29.93 "Hg12 mi
8:00 PM87 °FClear.3 mph31%29.91 "Hg12 mi
7:00 PM92 °FSunny.3 mph25%29.92 "Hg12 mi
6:00 PM94 °FSunny.3 mph23%29.94 "Hg12 mi
5:00 PM94 °FSunny.5 mph21%29.95 "Hg12 mi
4:00 PM93 °FSunny.5 mph20%29.97 "Hg12 mi
3:00 PM92 °FSunny.5 mph14%29.99 "Hg12 mi
2:00 PM89 °FSunny.5 mph27%30.00 "Hg12 mi
1:00 PM89 °FSunny.3 mph31%30.02 "Hg12 mi
12:00 PM84 °FSunny.5 mph36%30.02 "Hg12 mi
11:00 AM81 °FSunny.5 mph48%30.03 "Hg12 mi
10:00 AM76 °FSunny.3 mph65%30.03 "Hg12 mi
9:00 AM73 °FSunny.3 mph76%30.04 "Hg12 mi
8:00 AM70 °FSunny.3 mph82%30.04 "Hg12 mi
7:00 AM69 °FSunny.3 mph82%30.04 "Hg12 mi
6:00 AM69 °FClear.3 mph72%30.04 "Hg12 mi
4:00 AM70 °FClear.3 mph63%30.05 "Hg12 mi
3:00 AM72 °FClear.5 mph60%30.05 "Hg12 mi
Weather by CustomWeather, © 2015

See weather overviewHow to use our weather pages